[[{"header":{"parameterUnit":"m.s-1","parameterCategory":1,"la1":30.2991,"la2":30.254,"lo1":-89.0895,"lo2":-89.0444,"dy":0.0017,"dx":0.0017,"nx":28,"ny":28,"refTime":"2025-07-09T03:00:00:Z","depth":0,"parameterNumber":2,"parameterNumberName":"U-component_of_WINDS"},"data":[0,0,0,0,0,0,0,0,0,0,0,0,0,0,0,0,0,0,0,0,0,0,0,0,0,0,0,0,0,0,0,0,0,0,0,0,0,0,0,0,0,0,0,0,0,0,0,0,0,0,0,0,0,0,0,0,0,0,3.0614,3.0616,0,3.0715,3.0716,3.0717,3.0654,3.0651,3.0648,3.0645,3.0749,3.0755,3.076,0,0,0,0,0,0,0,0,0,0,0,0,0,3.0369,3.0374,3.0614,3.0616,3.0617,3.0714,3.0716,3.0717,3.0655,3.0651,3.0647,3.0644,3.0748,3.0754,3.0761,0,0,0,0,0,0,0,0,0,0,0,0,0,3.0473,3.0376,3.0614,3.0597,3.0597,3.0714,3.0716,3.0717,3.0655,3.0651,3.0646,3.0642,3.0745,3.0753,3.0762,3.0901,0,0,3.0787,3.079,0,0,0,0,0,0,0,0,3.0468,3.0482,3.0599,3.0599,3.0598,3.0667,3.0667,3.0779,3.0656,3.0633,3.0645,3.064,3.0726,3.0735,3.0764,3.0906,3.0911,3.0788,3.0793,3.0796,3.0799,0,0,0,0,0,0,0,3.046,3.0478,3.0654,3.06,3.06,3.0585,3.0595,3.0688,3.0703,3.0635,3.0631,3.0643,3.0725,3.0756,3.0766,3.0912,3.0787,3.0795,3.08,3.0803,3.1172,3.1177,0,0,0,0,0,0,3.0454,3.0472,3.0651,3.0657,3.0521,3.0593,3.0604,3.065,3.0702,3.0706,3.0647,3.064,3.0744,3.0756,3.0769,3.0935,3.0796,3.0804,3.0809,3.1168,3.1173,3.1179,0,0,0,0,0,0,3.0449,3.0471,3.0647,3.0563,3.0585,3.0602,3.0654,3.0654,3.0685,3.0711,3.0713,3.0676,3.0741,3.0758,3.0868,3.0938,3.0808,3.0815,3.1162,3.1169,3.1176,3.1269,0,0,0,0,0,0,3.0443,3.047,3.0523,3.0565,3.0589,3.0745,3.0658,3.0659,3.0699,3.0691,3.0739,3.0743,3.0739,3.0856,3.0877,3.0947,3.0822,3.1156,3.1165,3.1174,3.126,3.1278,3.1294,0,0,0,0,0,3.0434,3.0546,3.0526,3.0548,3.0656,3.0749,3.0763,3.0756,3.0705,3.0759,3.0775,3.0741,3.0927,3.0868,3.0891,3.0964,3.1151,3.1162,3.1173,3.1252,3.1275,3.1294,0,0,0,0,0,0,3.0512,3.0551,3.0529,3.0658,3.07,3.0738,3.0805,3.078,3.0838,3.0828,3.0817,3.0829,3.0944,3.0965,3.0899,3.1101,3.1031,3.1047,3.1083,3.1105,3.1122,3.1115,3.0828,0,0,0,0,0,3.0544,3.0615,3.0646,3.0756,3.0778,3.0788,3.0828,3.0819,3.0863,3.0881,3.0905,3.0949,3.1017,3.1063,3.1127,3.1262,3.1271,3.1324,3.1341,3.1355,3.1369,3.1441,3.1464,3.1214,3.1214,3.1214,0,0,3.0611,3.0641,3.0687,3.0772,3.0804,3.0878,3.0804,3.0886,3.0941,3.0893,3.0999,3.1019,3.1067,3.119,3.1246,3.1212,3.144,3.1369,3.138,3.1386,3.1455,3.1478,3.1499,3.1222,3.122,3.1219,0,0,3.0771,3.0801,3.0896,3.0929,3.0977,3.0983,3.1006,3.1047,3.1058,3.1164,3.1129,3.1194,3.1312,3.1348,3.1381,3.1553,3.1524,3.1575,3.1665,3.1735,3.1755,3.1773,3.1833,3.1855,3.1588,3.1589,3.1589,0,3.0848,3.0958,3.0948,3.1032,3.107,3.103,3.1125,3.1158,3.1226,3.1253,3.1213,3.1359,3.1389,3.1519,3.1561,3.159,3.1615,3.1569,3.1753,3.177,3.1787,3.1844,3.1867,3.1594,3.1594,3.1593,3.1592,0,3.1051,3.1127,3.1198,3.1263,3.1309,3.1399,3.1402,3.145,3.1436,3.1446,3.1554,3.1588,3.1658,3.1688,3.1676,3.1817,3.1794,3.1754,3.1683,3.1816,3.187,3.1892,3.1603,3.1601,3.1599,3.1597,0,0,3.1263,3.132,3.1346,3.1374,3.1425,3.1484,3.1571,3.1639,3.168,3.1727,3.18,3.19,3.1863,3.1901,3.1893,3.1955,3.2087,3.1907,3.1908,3.1939,3.2243,3.2272,3.2298,3.2068,3.2072,3.2075,3.2238,0,3.1425,3.1577,3.1569,3.1712,3.1782,3.1744,3.182,3.1859,3.187,3.1931,3.1944,3.2014,3.1961,3.1983,3.2043,3.2058,3.2148,3.2047,3.2135,3.2138,3.2123,3.2326,3.2357,3.2509,3.2259,3.2263,3.2266,0,3.1635,3.1688,3.1837,3.1876,3.1905,3.1973,3.2034,3.2093,3.2136,3.214,3.2182,3.2163,3.2251,3.2178,3.2298,3.223,3.2265,3.2278,3.2284,3.2292,3.221,3.2338,3.2558,3.2581,3.2299,3.2296,3.2294,0,3.1774,3.1883,3.1986,3.2012,3.2059,3.2108,3.213,3.2169,3.2209,3.2262,3.2288,3.2351,3.2386,3.2435,3.2433,3.238,3.2555,3.2482,3.256,3.2561,3.2599,3.2596,3.2827,3.2623,3.2623,3.2622,3.2622,0,3.1955,3.2048,3.2049,3.2112,3.2214,3.2204,3.2306,3.2323,3.2357,3.2423,3.2394,3.2457,3.2451,3.2514,3.2514,3.2613,3.2629,3.2634,3.2633,3.2637,3.2636,3.2659,3.2649,3.2628,3.2627,3.2626,3.2625,0,3.2128,3.2132,3.2242,3.2277,3.2288,3.2362,3.2392,3.2452,3.246,3.2543,3.2562,3.2576,3.2648,3.2651,3.2735,3.2735,3.2855,3.2843,3.2841,3.2838,3.2915,3.2908,3.3169,3.3202,3.2977,3.298,3.2981,0,3.2243,3.2313,3.2355,3.2397,3.2422,3.2489,3.253,3.2523,3.2567,3.262,3.2673,3.2743,3.2798,3.2915,3.2932,3.2996,3.2984,3.3071,3.2993,3.2994,3.2984,3.298,3.2986,3.3086,3.3089,3.3091,3.3092,0,3.2447,3.2445,3.2505,3.2565,3.2614,3.2662,3.2706,3.2742,3.274,3.279,3.2863,3.2906,3.299,3.306,3.3121,3.3144,3.3118,3.3116,3.3138,3.3142,3.3137,3.314,3.2881,3.311,3.3109,3.3107,3.3106,3.3106,3.2594,3.2653,3.2692,3.2759,3.2791,3.2833,3.289,3.2905,3.2966,3.3033,3.3025,3.3107,3.3147,3.3226,3.3254,3.3317,3.3287,3.3318,3.3326,3.3334,3.3341,3.3128,3.3328,3.3328,3.3327,3.3327,3.3327,0,3.2795,3.2818,3.2879,3.2941,3.2994,3.2964,3.3011,3.3057,3.3128,3.3167,3.3222,3.3305,3.3372,3.3394,3.3458,3.3504,3.3494,3.3521,3.3517,3.3523,3.3365,3.334,3.3528,3.3528,3.3528,3.3528,3.3528,3.3528,3.2906,3.3005,3.3008,3.3122,3.3144,3.3223,3.3252,3.329,3.3321,3.3415,3.347,3.3483,3.3515,3.3581,3.3641,3.3646,3.367,3.3703,3.3702,3.3554,3.3534,3.3515,3.3491,3.3708,3.3709,3.3855,3.3856,3.3857]},{"header":{"parameterUnit":"m.s-1","parameterCategory":1,"la1":30.2991,"la2":30.254,"lo1":-89.0895,"lo2":-89.0444,"dy":0.0017,"dx":0.0017,"nx":28,"ny":28,"refTime":"2025-07-09T03:00:00:Z","depth":0,"parameterNumber":3,"parameterNumberName":"V-component_of_WINDS"},"data":[0,0,0,0,0,0,0,0,0,0,0,0,0,0,0,0,0,0,0,0,0,0,0,0,0,0,0,0,0,0,0,0,0,0,0,0,0,0,0,0,0,0,0,0,0,0,0,0,0,0,0,0,0,0,0,0,0,0,-1.0563,-1.0564,0,-1.0588,-1.0588,-1.0588,-1.0605,-1.0605,-1.0605,-1.0605,-1.0629,-1.063,-1.063,0,0,0,0,0,0,0,0,0,0,0,0,0,-1.053,-1.0531,-1.0563,-1.0564,-1.0564,-1.0588,-1.0588,-1.0588,-1.0605,-1.0605,-1.0605,-1.0606,-1.0629,-1.063,-1.063,0,0,0,0,0,0,0,0,0,0,0,0,0,-1.0549,-1.0531,-1.0563,-1.0575,-1.0576,-1.0588,-1.0588,-1.0588,-1.0605,-1.0605,-1.0605,-1.0606,-1.0629,-1.0629,-1.063,-1.0631,0,0,-1.0633,-1.0633,0,0,0,0,0,0,0,0,-1.0548,-1.055,-1.0573,-1.0574,-1.0576,-1.0594,-1.0585,-1.0603,-1.0605,-1.0594,-1.0605,-1.0606,-1.0617,-1.0619,-1.0623,-1.0632,-1.0633,-1.0633,-1.0633,-1.0633,-1.0634,0,0,0,0,0,0,0,-1.0546,-1.0549,-1.0573,-1.0573,-1.0575,-1.0579,-1.0582,-1.0588,-1.0604,-1.0595,-1.0596,-1.0599,-1.0618,-1.0622,-1.0624,-1.0634,-1.0633,-1.0633,-1.0634,-1.0634,-1.0645,-1.0645,0,0,0,0,0,0,-1.0543,-1.0548,-1.0572,-1.0574,-1.0562,-1.0579,-1.0583,-1.0588,-1.0604,-1.0607,-1.0599,-1.06,-1.0621,-1.0623,-1.0624,-1.0627,-1.0633,-1.0634,-1.0635,-1.0645,-1.0645,-1.0645,0,0,0,0,0,0,-1.0542,-1.0545,-1.0571,-1.0561,-1.0565,-1.058,-1.0585,-1.0588,-1.0592,-1.0607,-1.061,-1.06,-1.0621,-1.0623,-1.063,-1.0628,-1.0635,-1.0635,-1.0646,-1.0645,-1.0645,-1.0631,0,0,0,0,0,0,-1.0541,-1.0545,-1.0546,-1.0561,-1.0565,-1.0576,-1.0585,-1.0588,-1.0594,-1.0595,-1.0609,-1.0612,-1.0621,-1.0628,-1.063,-1.0629,-1.0636,-1.0646,-1.0645,-1.0645,-1.0632,-1.063,-1.0629,0,0,0,0,0,-1.054,-1.054,-1.0545,-1.0548,-1.0566,-1.0576,-1.0578,-1.059,-1.0594,-1.0594,-1.0604,-1.0611,-1.0628,-1.0629,-1.0631,-1.063,-1.0646,-1.0646,-1.0645,-1.0632,-1.0631,-1.0629,0,0,0,0,0,0,-1.0524,-1.0542,-1.0548,-1.0553,-1.0563,-1.0579,-1.058,-1.0587,-1.0595,-1.0596,-1.061,-1.0613,-1.0618,-1.0624,-1.0625,-1.0632,-1.0638,-1.0638,-1.0627,-1.0626,-1.0624,-1.0622,-1.0636,0,0,0,0,0,-1.0521,-1.0527,-1.0543,-1.0546,-1.0551,-1.0564,-1.0569,-1.0577,-1.0587,-1.0591,-1.0601,-1.061,-1.0618,-1.0622,-1.063,-1.0633,-1.0636,-1.0633,-1.0632,-1.0631,-1.0631,-1.0633,-1.0632,-1.0644,-1.0644,-1.0644,0,0,-1.0514,-1.0525,-1.0529,-1.0543,-1.0551,-1.0557,-1.0568,-1.0574,-1.0578,-1.0592,-1.0598,-1.0606,-1.0617,-1.0622,-1.0625,-1.0628,-1.0629,-1.0631,-1.063,-1.063,-1.0633,-1.0632,-1.0631,-1.0644,-1.0644,-1.0644,0,0,-1.0506,-1.0515,-1.0519,-1.0527,-1.054,-1.0549,-1.055,-1.0564,-1.057,-1.0577,-1.0588,-1.0593,-1.0606,-1.0613,-1.0619,-1.0614,-1.0621,-1.0616,-1.0609,-1.0612,-1.0611,-1.061,-1.0608,-1.0608,-1.0616,-1.0616,-1.0616,0,-1.0496,-1.0506,-1.0519,-1.0525,-1.0531,-1.0544,-1.0548,-1.0555,-1.0569,-1.0573,-1.0577,-1.0593,-1.0602,-1.0608,-1.0607,-1.0612,-1.0613,-1.0614,-1.061,-1.0609,-1.0609,-1.0607,-1.0607,-1.0615,-1.0615,-1.0616,-1.0616,0,-1.0494,-1.0501,-1.0502,-1.0516,-1.0522,-1.0527,-1.054,-1.0545,-1.0553,-1.0562,-1.0569,-1.058,-1.059,-1.0592,-1.0599,-1.06,-1.0602,-1.0608,-1.0614,-1.0607,-1.0606,-1.0605,-1.0614,-1.0615,-1.0615,-1.0615,0,0,-1.0475,-1.0497,-1.0497,-1.0504,-1.0519,-1.0524,-1.053,-1.054,-1.0544,-1.0554,-1.0558,-1.0569,-1.0574,-1.0581,-1.0589,-1.0591,-1.0587,-1.0597,-1.0597,-1.0594,-1.0588,-1.0584,-1.0583,-1.0592,-1.0592,-1.0592,-1.0588,0,-1.0469,-1.0479,-1.0491,-1.0497,-1.0504,-1.0517,-1.0522,-1.0532,-1.054,-1.0547,-1.0556,-1.0563,-1.057,-1.0574,-1.0577,-1.0587,-1.0586,-1.0587,-1.0596,-1.0596,-1.0593,-1.0582,-1.0577,-1.0572,-1.0587,-1.0587,-1.0587,0,-1.0463,-1.0472,-1.0479,-1.0494,-1.0498,-1.0501,-1.0512,-1.0519,-1.053,-1.0536,-1.0544,-1.0553,-1.0559,-1.0565,-1.0573,-1.0574,-1.0579,-1.0584,-1.0584,-1.0585,-1.0591,-1.0583,-1.0571,-1.057,-1.0586,-1.0586,-1.0587,0,-1.0448,-1.0463,-1.0469,-1.0474,-1.0492,-1.0495,-1.0502,-1.0514,-1.0519,-1.0529,-1.0533,-1.0542,-1.0548,-1.0555,-1.0567,-1.057,-1.0574,-1.0581,-1.0579,-1.0579,-1.0579,-1.0579,-1.0568,-1.0582,-1.0582,-1.0582,-1.0582,0,-1.0439,-1.0443,-1.0462,-1.0466,-1.0471,-1.0485,-1.0489,-1.0497,-1.0508,-1.0514,-1.0526,-1.053,-1.0546,-1.0552,-1.0561,-1.0567,-1.057,-1.0575,-1.0577,-1.0573,-1.0573,-1.0576,-1.0576,-1.0582,-1.0582,-1.0582,-1.0582,0,-1.0424,-1.0437,-1.0444,-1.0461,-1.0465,-1.0468,-1.0482,-1.0486,-1.0496,-1.0503,-1.0505,-1.052,-1.0529,-1.0541,-1.0553,-1.056,-1.0564,-1.0568,-1.056,-1.0561,-1.0559,-1.0559,-1.0549,-1.0549,-1.0564,-1.0564,-1.0564,0,-1.0417,-1.042,-1.0438,-1.0442,-1.045,-1.0457,-1.0463,-1.0477,-1.0483,-1.0497,-1.0499,-1.0509,-1.0517,-1.053,-1.0542,-1.0552,-1.0556,-1.0552,-1.0557,-1.0554,-1.0555,-1.0555,-1.0555,-1.055,-1.055,-1.055,-1.055,0,-1.0404,-1.0411,-1.0419,-1.043,-1.0437,-1.0446,-1.0456,-1.0459,-1.0475,-1.0481,-1.049,-1.0497,-1.051,-1.0519,-1.053,-1.0538,-1.0546,-1.0548,-1.0548,-1.0544,-1.054,-1.0542,-1.0556,-1.0548,-1.0548,-1.0548,-1.0549,-1.0549,-1.0393,-1.0396,-1.0409,-1.0418,-1.0427,-1.0436,-1.0441,-1.0451,-1.0459,-1.0471,-1.0479,-1.0488,-1.05,-1.0516,-1.0523,-1.053,-1.0534,-1.0534,-1.0534,-1.0534,-1.0532,-1.0539,-1.0532,-1.0532,-1.0532,-1.0533,-1.0533,0,-1.038,-1.0389,-1.0398,-1.0411,-1.0418,-1.0427,-1.0438,-1.0443,-1.0451,-1.0461,-1.047,-1.048,-1.049,-1.0503,-1.0513,-1.0516,-1.052,-1.0518,-1.0518,-1.052,-1.0529,-1.0527,-1.0515,-1.0515,-1.0515,-1.0515,-1.0515,-1.0515,-1.0374,-1.0381,-1.0389,-1.04,-1.041,-1.0419,-1.0424,-1.0433,-1.0441,-1.0453,-1.0461,-1.0469,-1.0481,-1.0492,-1.0501,-1.0505,-1.0508,-1.0505,-1.0509,-1.0517,-1.0519,-1.052,-1.0519,-1.0505,-1.0505,-1.05,-1.05,-1.05]}]]